sat.trackr.live / text

‹ back to catalog

STARLINK-32954

NORAD 63567 · 2025-075V

PAYLOAD ACTIVE UNKNOWN

§ Identity

Operator
Country
US
Launch date
2025-04-13
Launch site
AFETR
Launch vehicle
Mass (kg)
RCS (m²)

Purposes: comms

External: N2YO · Heavens-Above · Gunter

§ Orbital elements

Epoch: 2026-05-25T03:46:42.422016Z

Period
94.27 min
Inclination
43.0011°
Eccentricity
0.0001708
Mean motion
15.27581781 rev/d
Perigee alt
481.9 km
Apogee alt
484.2 km
Semi-major
6,861.2 km
B*
3.2543e-4
RAAN
198.6265°
Arg perigee
274.1841°
Mean anomaly
85.8816°
Rev number
6,362

§ Raw data

STARLINK-329541 63567U 25075V   26145.15743544  .00008704  00000+0  32543-3 0  99952 63567  43.0011 198.6265 0001708 274.1841  85.8816 15.27581781 63626

JSON: /api/v1/satellites/63567 · /tle

For live sub-satellite position, see the globe view (requires WebGL).

§ Visibility from observer

Set your observer location to see the next 7 days of passes ≥ 10°. The values pass through the URL so the page stays shareable.

No JS? Fill the form by hand. The geolocation button needs JavaScript.